Weather in Ogoron

Russia / Amur Oblast     53°57′40″N   129°08′39″E
temp.,
°C
wind,
m/s
gust,
m/s
humid.,
%
clouds,
%
prec.,
mm/h
press.,
hPa
HPBL,
m
8 august, mon
mon800:00+14ssw1183100 0.0 99731
03:00+12nne1196100 0.4 99533
06:00+12ene3897100 7.4 991327
09:00+13se2794100 10.9 991641
12:00+13sse3894100 0.4 992746
15:00+15s468396 0.9 992754
18:00+14s468617 1.3 993670
21:00+10ese11945 1.4 99312
9 august, tue
tue900:00+11ese1194100 0.6 99224
03:00+11s0195100 2.6 99218
06:00+11nne1298100 1.7 99282
09:00+11nne1197100 4.7 992112
12:00+13n118995 1.0 992358
15:00+15s117226 1.6 991772
18:00+15sw118073 2.4 991228
21:00+11sse229228 3.7 99226
10 august, wed
wed1000:00+9sse229451 0.0 99317
03:00+8ese1194100 0.0 99410
06:00+9ne119337 0.0 99514
09:00+13nnw1184100 0.0 995335
12:00+13ne2486100 0.2 996247
15:00+18ne5754100 0.2 9951166
18:00+16ene586797 0.0 996602
21:00+10ene118873 0.1 99811
11 august, thu
thu1100:00+10sse0090100 0.3 99810
03:00+10e0092100 0.9 99810
06:00+11wnw1196100 1.6 99957
09:00+13sw228996 2.2 999470
12:00+15sw227938 0.2 999645
15:00+18wnw116196 0.6 9981259
18:00+17nw117254 1.1 998613
21:00+11se018860 1.2 99910
12 august, fri
fri1200:00+9s119320 0.7 100011
03:00+9ese119320 0.7 100110
06:00+10sse009315 0.0 100210
09:00+15nw118022 0.1 1002481
12:00+17nw117466 1.5 1002953
15:00+19w016453 2.7 10011187
18:00+19ne11607 0.3 10011119
21:00+12sse118412 0.7 100211